Date,TemperatureHighF,TemperatureAvgF,TemperatureLowF,DewpointHighF,DewpointAvgF,DewpointLowF,HumidityHigh,HumidityAvg,HumidityLow,PressureMaxIn,PressureMinIn,WindSpeedMaxMPH,WindSpeedAvgMPH,GustSpeedMaxMPH,PrecipitationSumIn
2013-1-1,31,26,22,22,14,9,84,60,50,0.00,40.00,0,0,0,0.00
2013-1-2,30,23,18,11,7,2,57,49,41,0.00,40.00,0,0,0,0.00
2013-1-3,38,24,16,11,3,-1,47,40,32,0.00,40.00,0,0,0,0.00
2013-1-4,42,31,21,11,6,0,40,34,26,0.00,40.00,0,0,0,0.00
2013-1-5,40,30,23,17,13,8,61,48,35,0.00,40.00,0,0,0,0.00
2013-1-6,41,31,23,16,12,8,52,44,33,0.00,40.00,0,0,0,0.00
2013-1-7,44,35,29,20,16,13,55,47,34,0.00,40.00,0,0,0,0.00
2013-1-8,43,38,32,19,16,12,47,40,31,0.00,40.00,0,0,0,0.00
2013-1-9,58,45,33,22,18,14,46,34,22,0.00,40.00,0,0,0,0.00
2013-1-10,49,32,15,24,19,11,91,60,29,0.00,40.00,0,0,0,0.00
2013-1-11,15,8,5,11,3,0,83,80,72,0.00,40.00,0,0,0,0.00
2013-1-12,14,8,3,5,2,-2,83,77,62,0.00,40.00,0,0,0,0.00
2013-1-13,16,10,4,3,0,-2,81,65,51,0.00,40.00,0,0,0,0.00
2013-1-14,17,12,9,3,-1,-4,62,55,48,0.00,40.00,0,0,0,0.00
2013-1-15,33,25,17,17,12,4,65,58,51,0.00,40.00,0,0,0,0.00
2013-1-16,41,36,32,17,14,11,51,41,36,0.00,40.00,0,0,0,0.00
2013-1-17,43,36,26,17,14,9,49,39,30,0.00,40.00,0,0,0,0.00
2013-1-18,50,42,37,17,14,11,34,31,26,0.00,40.00,0,0,0,0.00
2013-1-19,41,34,27,22,17,10,75,52,30,0.00,40.00,0,0,0,0.00
2013-1-20,36,20,14,18,13,9,85,73,42,0.00,40.00,0,0,0,0.00
2013-1-21,31,20,11,17,13,8,87,72,53,0.00,40.00,0,0,0,0.00
2013-1-22,46,36,25,14,12,8,63,37,25,0.00,40.00,0,0,0,0.00
2013-1-23,35,22,14,15,13,10,89,71,37,0.00,40.00,0,0,0,0.00
2013-1-24,50,38,21,23,18,12,75,44,34,0.00,40.00,0,0,0,0.00
2013-1-25,48,39,30,25,21,17,58,48,40,0.00,40.00,0,0,0,0.00
2013-1-26,54,44,35,28,24,22,57,45,31,0.00,40.00,0,0,0,0.00
2013-1-27,43,32,28,31,27,21,91,85,45,0.00,40.00,0,0,0,0.00
2013-1-28,33,27,22,25,16,7,91,65,49,0.00,40.00,0,0,0,0.00
2013-1-29,25,15,1,20,6,-6,88,68,51,0.00,40.00,0,0,0,0.00
2013-1-30,31,20,3,24,14,-2,89,76,59,0.00,40.00,0,0,0,0.00
2013-1-31,34,19,1,22,12,-5,78,73,61,0.00,40.00,0,0,0,0.00